Date,TemperatureHighF,TemperatureAvgF,TemperatureLowF,DewpointHighF,DewpointAvgF,DewpointLowF,HumidityHigh,HumidityAvg,HumidityLow,PressureMaxIn,PressureMinIn,WindSpeedMaxMPH,WindSpeedAvgMPH,GustSpeedMaxMPH,PrecipitationSumIn
2013-2-1,83.3,61.0,45.0,46.2,39.1,28.5,76,50,15,30.05,29.95,3,1,7,0.00
2013-2-2,85.1,64.7,51.3,49.0,40.4,28.8,65,45,15,30.08,29.95,3,0,5,0.00
2013-2-3,83.7,67.9,56.3,49.5,45.6,40.4,65,47,23,29.96,29.80,8,2,15,0.00
2013-2-4,90.7,66.1,51.4,44.9,38.4,23.4,68,43,10,29.89,29.74,6,2,9,0.00
2013-2-5,86.0,65.7,49.1,44.0,37.6,23.0,67,40,11,29.85,29.70,5,1,13,0.00
2013-2-6,83.5,67.5,57.7,44.9,37.4,19.7,58,38,10,29.81,29.69,13,5,23,0.00
2013-2-7,79.2,62.9,48.0,44.7,36.6,17.2,67,43,10,29.92,29.71,11,2,21,0.00
2013-2-8,64.9,54.0,45.7,40.1,34.8,27.8,62,49,30,29.79,29.69,18,6,32,0.00
2013-2-9,69.1,53.9,42.8,34.9,31.7,26.0,71,45,21,29.89,29.71,9,4,18,0.00
2013-2-10,71.2,56.1,46.6,36.4,32.0,25.3,56,42,18,29.89,29.78,9,4,17,0.00
2013-2-11,65.8,55.4,43.3,37.2,18.0,-0.9,61,28,10,30.08,29.85,12,5,24,0.00
2013-2-12,75.6,53.0,37.0,29.9,17.5,3.1,52,29,10,30.19,30.04,3,1,8,0.00
2013-2-13,81.3,56.0,39.0,30.8,24.2,13.7,60,34,10,30.11,29.93,4,1,8,0.00
2013-2-14,82.9,62.9,44.6,34.6,25.3,12.9,57,30,10,30.03,29.90,7,2,16,0.00
2013-2-15,87.6,65.1,49.1,37.2,24.7,11.8,53,25,10,30.11,30.01,4,2,8,0.00
2013-2-16,89.4,63.3,46.9,37.8,23.3,10.5,47,25,10,30.08,29.80,3,0,5,0.00
2013-2-17,89.1,64.3,43.9,34.7,23.8,13.2,48,24,10,29.80,29.64,12,3,21,0.00
2013-2-18,81.9,63.6,46.2,42.5,31.4,15.5,61,34,10,29.86,29.69,7,2,13,0.00
2013-2-19,67.5,57.8,50.0,42.8,37.5,30.9,61,48,29,29.70,29.50,13,8,24,0.00
2013-2-20,65.7,53.6,41.4,42.1,35.0,29.4,90,53,27,29.77,29.49,13,6,25,0.00
2013-2-21,72.9,55.9,44.1,37.0,31.2,21.3,59,41,19,29.92,29.77,8,3,15,0.00
2013-2-22,77.7,56.3,38.7,34.3,24.7,11.2,66,38,10,30.03,29.91,3,1,10,0.00
2013-2-23,77.4,67.1,60.4,36.3,26.9,4.2,39,24,10,29.83,29.63,14,5,24,0.00
2013-2-24,74.5,59.6,45.7,18.1,5.7,-3.0,29,12,10,30.05,29.83,13,4,25,0.00
2013-2-25,75.9,56.0,41.4,27.1,16.1,3.8,42,24,10,30.08,29.87,4,1,10,0.00
2013-2-26,79.5,58.1,0.0,32.6,19.3,-35.1,62,26,10,30.03,29.83,7,2,19,0.00
2013-2-27,78.3,61.4,44.4,25.6,14.1,-47.0,46,18,10,30.15,30.03,11,3,103,0.33
2013-2-28,88.5,65.6,47.7,37.6,16.6,-0.1,59,16,10,30.19,30.08,9,2,10,0.00